| time (UTC) | temp F | wind direction | speed MPH | gust MPH | rain 1hr in | rain 24hr in | rain mn in | humidity % | barometer mb |
| 20260507110312 | 50 | 273 | 5.0 | 13.0 | 0.02 | 0.26 | 0.23 | 94 | 1012.3 |
| 20260507104812 | 50 | 269 | 5.0 | 11.0 | 0.02 | 0.26 | 0.23 | 94 | 1012.2 |
| 20260507103312 | 50 | 291 | 6.0 | 10.0 | 0.03 | 0.25 | 0.22 | 94 | 1012.0 |
| 20260507101813 | 50 | 294 | 7.0 | 13.0 | 0.03 | 0.24 | 0.21 | 93 | 1011.8 |
| 20260507100312 | 50 | 304 | 4.0 | 9.0 | 0.02 | 0.24 | 0.20 | 93 | 1011.7 |
| 20260507094812 | 50 | 232 | 5.0 | 12.0 | 0.02 | 0.24 | 0.20 | 92 | 1011.5 |
| 20260507093312 | 51 | 233 | 4.0 | 9.0 | 0.01 | 0.22 | 0.19 | 89 | 1011.4 |
| 20260507091812 | 53 | 213 | 7.0 | 12.0 | 0.00 | 0.21 | 0.18 | 87 | 1011.4 |
| 20260507090312 | 53 | 211 | 9.0 | 14.0 | 0.00 | 0.21 | 0.18 | 86 | 1011.2 |
| 20260507084812 | 53 | 216 | 6.0 | 10.0 | 0.00 | 0.21 | 0.18 | 87 | 1011.1 |
| 20260507083313 | 53 | 208 | 5.0 | 9.0 | 0.00 | 0.21 | 0.18 | 89 | 1011.0 |
| 20260507081812 | 51 | 219 | 6.0 | 10.0 | 0.00 | 0.21 | 0.18 | 90 | 1010.7 |
| 20260507080312 | 52 | 199 | 6.0 | 12.0 | 0.00 | 0.21 | 0.18 | 89 | 1010.7 |
| 20260507074812 | 52 | 196 | 2.0 | 6.0 | 0.00 | 0.21 | 0.18 | 90 | 1010.6 |
| 20260507073313 | 51 | 189 | 1.0 | 5.0 | 0.01 | 0.21 | 0.18 | 92 | 1010.3 |
| 20260507071812 | 50 | 190 | 1.0 | 4.0 | 0.02 | 0.21 | 0.18 | 92 | 1010.3 |
| 20260507070312 | 50 | 201 | 3.0 | 7.0 | 0.02 | 0.21 | 0.18 | 92 | 1010.3 |
| 20260507064812 | 50 | 221 | 2.0 | 4.0 | 0.02 | 0.21 | 0.18 | 92 | 1010.3 |
| 20260507063312 | 50 | 227 | 3.0 | 6.0 | 0.01 | 0.20 | 0.17 | 92 | 1010.3 |
| 20260507061812 | 51 | 236 | 2.0 | 6.0 | 0.00 | 0.20 | 0.17 | 92 | 1010.1 |
| 20260507060312 | 51 | 224 | 2.0 | 6.0 | 0.00 | 0.20 | 0.17 | 92 | 1010.0 |
| 20260507054812 | 51 | 215 | 2.0 | 5.0 | 0.00 | 0.20 | 0.17 | 93 | 1009.8 |
| 20260507053312 | 50 | 213 | 1.0 | 4.0 | 0.00 | 0.20 | 0.17 | 94 | 1009.8 |
| 20260507051812 | 50 | 217 | 0.0 | 3.0 | 0.00 | 0.20 | 0.17 | 94 | 1009.8 |
| 20260507050312 | 50 | 217 | 0.0 | 0.0 | 0.00 | 0.20 | 0.17 | 94 | 1009.7 |
| 20260507044812 | 49 | 217 | 1.0 | 4.0 | 0.01 | 0.20 | 0.17 | 94 | 1009.6 |
| 20260507043311 | 49 | 217 | 0.0 | 3.0 | 0.01 | 0.20 | 0.17 | 94 | 1009.5 |
| 20260507041812 | 49 | 219 | 1.0 | 2.0 | 0.01 | 0.20 | 0.17 | 94 | 1009.4 |
| 20260507040313 | 49 | 224 | 0.0 | 3.0 | 0.04 | 0.20 | 0.17 | 94 | 1009.3 |
| 20260507034812 | 49 | 224 | 0.0 | 0.0 | 0.06 | 0.19 | 0.16 | 94 | 1009.1 |
| 20260507033311 | 49 | 224 | 0.0 | 0.0 | 0.08 | 0.19 | 0.16 | 94 | 1009.2 |
| 20260507031811 | 49 | 224 | 0.0 | 0.0 | 0.09 | 0.19 | 0.16 | 94 | 1009.1 |
| 20260507030312 | 50 | 223 | 2.0 | 6.0 | 0.06 | 0.16 | 0.13 | 94 | 1009.1 |
| 20260507024811 | 50 | 213 | 0.0 | 0.0 | 0.03 | 0.13 | 0.10 | 94 | 1009.0 |
| 20260507023311 | 50 | 213 | 0.0 | 0.0 | 0.01 | 0.11 | 0.08 | 94 | 1009.0 |
| 20260507021812 | 51 | 213 | 0.0 | 0.0 | 0.01 | 0.10 | 0.07 | 94 | 1009.2 |
| 20260507020312 | 51 | 213 | 0.0 | 0.0 | 0.02 | 0.10 | 0.07 | 94 | 1009.1 |
| 20260507014811 | 51 | 213 | 0.0 | 0.0 | 0.02 | 0.10 | 0.07 | 94 | 1008.9 |
| 20260507013312 | 51 | 213 | 0.0 | 0.0 | 0.03 | 0.10 | 0.07 | 94 | 1008.9 |
| 20260507011811 | 51 | 213 | 0.0 | 0.0 | 0.03 | 0.09 | 0.06 | 93 | 1008.9 |
| 20260507010311 | 51 | 213 | 0.0 | 0.0 | 0.02 | 0.09 | 0.06 | 93 | 1008.8 |
| 20260507004811 | 51 | 213 | 0.0 | 0.0 | 0.02 | 0.09 | 0.06 | 93 | 1008.7 |
| 20260507003311 | 51 | 213 | 0.0 | 4.0 | 0.01 | 0.07 | 0.04 | 93 | 1008.7 |
| 20260507001812 | 51 | 213 | 1.0 | 4.0 | 0.00 | 0.06 | 0.03 | 92 | 1008.6 |
| 20260507000313 | 51 | 213 | 2.0 | 4.0 | 0.00 | 0.06 | 0.03 | 93 | 1008.7 |
| 20260506234811 | 51 | 202 | 1.0 | 3.0 | 0.00 | 0.06 | 0.03 | 93 | 1008.7 |
| 20260506233311 | 52 | 202 | 0.0 | 0.0 | 0.02 | 0.06 | 0.03 | 93 | 1008.8 |
| 20260506231812 | 52 | 202 | 1.0 | 3.0 | 0.02 | 0.06 | 0.03 | 93 | 1008.4 |
| 20260506230311 | 52 | 180 | 0.0 | 3.0 | 0.03 | 0.06 | 0.03 | 93 | 1008.4 |
| 20260506224811 | 52 | 180 | 2.0 | 4.0 | 0.05 | 0.07 | 0.03 | 93 | 1008.4 |
| 20260506223311 | 53 | 187 | 0.0 | 1.0 | 0.04 | 0.06 | 0.02 | 92 | 1008.4 |
| 20260506221812 | 53 | 187 | 0.0 | 0.0 | 0.03 | 0.05 | 0.01 | 92 | 1008.2 |
| 20260506220311 | 53 | 187 | 0.0 | 0.0 | 0.03 | 0.04 | 0.00 | 92 | 1008.4 |
| 20260506214811 | 53 | 187 | 0.0 | 0.0 | 0.02 | 0.02 | 0.02 | 91 | 1008.3 |
| 20260506213311 | 53 | 187 | 0.0 | 2.0 | 0.01 | 0.02 | 0.02 | 91 | 1008.3 |
| 20260506211811 | 53 | 187 | 0.0 | 0.0 | 0.01 | 0.02 | 0.02 | 90 | 1008.1 |
| 20260506210311 | 53 | 187 | 1.0 | 3.0 | 0.00 | 0.01 | 0.01 | 89 | 1007.9 |
| 20260506204811 | 54 | 187 | 1.0 | 2.0 | 0.00 | 0.11 | 0.01 | 89 | 1007.8 |
| 20260506203311 | 54 | 187 | 0.0 | 0.0 | 0.00 | 0.11 | 0.01 | 89 | 1007.9 |
| 20260506202527 | 54 | 187 | 0.0 | 0.0 | 0.00 | 0.11 | 0.01 | 89 | 1007.8 |
| 20260506202027 | 54 | 187 | 0.0 | 0.0 | 0.00 | 0.11 | 0.01 | 89 | 1007.8 |
| 20260506201811 | 54 | 187 | 2.0 | 4.0 | 0.00 | 0.11 | 0.01 | 89 | 1007.9 |
| 20260506201527 | 54 | 187 | 1.0 | 4.0 | 0.00 | 0.11 | 0.01 | 89 | 1007.9 |
| 20260506201027 | 54 | 187 | 3.0 | 4.0 | 0.00 | 0.11 | 0.01 | 89 | 1007.6 |
| 20260506200527 | 54 | 187 | 2.0 | 3.0 | 0.00 | 0.11 | 0.01 | 89 | 1007.6 |
| 20260506200311 | 54 | 187 | 3.0 | 6.0 | 0.00 | 0.11 | 0.01 | 88 | 1007.4 |
| 20260506200028 | 54 | 187 | 3.0 | 6.0 | 0.00 | 0.11 | 0.01 | 88 | 1007.4 |
| 20260506195528 | 54 | 203 | 4.0 | 5.0 | 0.00 | 0.35 | 0.01 | 88 | 1007.4 |
| 20260506195028 | 54 | 209 | 4.0 | 6.0 | 0.00 | 0.35 | 0.01 | 88 | 1007.4 |
| 20260506194811 | 54 | 170 | 0.0 | 0.0 | 0.00 | 0.35 | 0.01 | 89 | 1007.3 |
| 20260506194528 | 54 | 170 | 0.0 | 0.0 | 0.00 | 0.35 | 0.01 | 89 | 1007.3 |
| 20260506194028 | 54 | 170 | 0.0 | 0.0 | 0.00 | 0.35 | 0.01 | 89 | 1007.2 |
| 20260506193528 | 54 | 170 | 0.0 | 0.0 | 0.00 | 0.35 | 0.01 | 88 | 1007.2 |
| 20260506193311 | 54 | 170 | 0.0 | 0.0 | 0.00 | 0.35 | 0.01 | 88 | 1007.1 |
| 20260506193028 | 54 | 170 | 0.0 | 0.0 | 0.00 | 0.35 | 0.01 | 88 | 1007.1 |
| 20260506192528 | 55 | 170 | 0.0 | 0.0 | 0.00 | 0.35 | 0.01 | 87 | 1007.1 |
| 20260506192028 | 55 | 170 | 0.0 | 0.0 | 0.00 | 0.35 | 0.01 | 87 | 1007.1 |
| 20260506191812 | 55 | 170 | 0.0 | 0.0 | 0.00 | 0.35 | 0.01 | 87 | 1007.0 |
| 20260506191527 | 55 | 170 | 0.0 | 0.0 | 0.00 | 0.35 | 0.01 | 87 | 1007.0 |
| 20260506191027 | 55 | 170 | 0.0 | 0.0 | 0.00 | 0.35 | 0.01 | 86 | 1007.1 |
| 20260506190527 | 55 | 170 | 0.0 | 4.0 | 0.00 | 0.35 | 0.01 | 86 | 1006.9 |
| 20260506190311 | 56 | 170 | 0.0 | 2.0 | 0.00 | 0.35 | 0.01 | 85 | 1007.2 |
| 20260506190027 | 56 | 170 | 0.0 | 2.0 | 0.00 | 0.35 | 0.01 | 85 | 1007.2 |
| 20260506185527 | 56 | 170 | 1.0 | 5.0 | 0.00 | 0.61 | 0.01 | 84 | 1007.2 |
| 20260506185028 | 56 | 170 | 3.0 | 6.0 | 0.00 | 0.61 | 0.01 | 84 | 1007.0 |
| 20260506184813 | 56 | 170 | 3.0 | 6.0 | 0.00 | 0.61 | 0.01 | 83 | 1006.7 |
| 20260506184528 | 56 | 170 | 3.0 | 6.0 | 0.00 | 0.61 | 0.01 | 83 | 1006.7 |
| 20260506184028 | 56 | 170 | 2.0 | 5.0 | 0.00 | 0.61 | 0.01 | 82 | 1006.6 |
| 20260506183528 | 56 | 170 | 1.0 | 4.0 | 0.00 | 0.61 | 0.01 | 82 | 1006.6 |
| 20260506183311 | 56 | 170 | 2.0 | 4.0 | 0.00 | 0.61 | 0.01 | 82 | 1006.6 |
| 20260506183028 | 56 | 170 | 1.0 | 4.0 | 0.00 | 0.61 | 0.01 | 82 | 1006.6 |
| 20260506182528 | 56 | 170 | 1.0 | 4.0 | 0.00 | 0.61 | 0.01 | 82 | 1006.6 |
| 20260506182028 | 56 | 170 | 3.0 | 5.0 | 0.00 | 0.61 | 0.01 | 82 | 1006.7 |
| 20260506181811 | 57 | 170 | 1.0 | 4.0 | 0.00 | 0.61 | 0.01 | 83 | 1006.6 |
| 20260506181527 | 57 | 170 | 1.0 | 4.0 | 0.00 | 0.61 | 0.01 | 83 | 1006.6 |
| 20260506181027 | 57 | 170 | 2.0 | 4.0 | 0.00 | 0.61 | 0.01 | 84 | 1006.5 |
| 20260506180527 | 57 | 170 | 0.0 | 0.0 | 0.00 | 0.61 | 0.01 | 84 | 1006.7 |
| 20260506180311 | 57 | 170 | 0.0 | 0.0 | 0.00 | 0.61 | 0.01 | 83 | 1006.6 |
| 20260506180027 | 57 | 170 | 0.0 | 0.0 | 0.00 | 0.61 | 0.01 | 83 | 1006.6 |
| 20260506175527 | 58 | 170 | 0.0 | 0.0 | 0.00 | 0.61 | 0.01 | 82 | 1006.7 |
| 20260506174811 | 58 | 170 | 0.0 | 0.0 | 0.00 | 0.61 | 0.01 | 80 | 1006.5 |
| 20260506173311 | 59 | 170 | 0.0 | 0.0 | 0.00 | 0.61 | 0.01 | 75 | 1006.5 |
| 20260506171811 | 60 | 170 | 1.0 | 2.0 | 0.00 | 0.61 | 0.01 | 70 | 1006.4 |
| 20260506170311 | 61 | 170 | 2.0 | 4.0 | 0.00 | 0.61 | 0.01 | 66 | 1006.4 |
| 20260506164811 | 62 | 170 | 1.0 | 2.0 | 0.00 | 0.61 | 0.01 | 64 | 1006.5 |
| 20260506163311 | 62 | 170 | 0.0 | 2.0 | 0.00 | 0.61 | 0.01 | 64 | 1006.5 |
| 20260506161811 | 62 | 205 | 0.0 | 2.0 | 0.00 | 0.61 | 0.01 | 66 | 1006.6 |
| 20260506160311 | 61 | 205 | 2.0 | 4.0 | 0.00 | 0.61 | 0.01 | 67 | 1006.6 |
| 20260506154811 | 61 | 205 | 3.0 | 5.0 | 0.00 | 0.66 | 0.01 | 69 | 1006.9 |
| 20260506153311 | 61 | 218 | 2.0 | 4.0 | 0.00 | 0.66 | 0.01 | 69 | 1007.1 |
| 20260506152526 | 61 | 220 | 3.0 | 5.0 | 0.00 | 0.66 | 0.01 | 68 | 1007.1 |
| 20260506152028 | 61 | 214 | 0.0 | 3.0 | 0.00 | 0.66 | 0.01 | 68 | 1007.1 |
| 20260506151811 | 61 | 269 | 1.0 | 3.0 | 0.00 | 0.66 | 0.01 | 69 | 1007.2 |
| 20260506151528 | 61 | 269 | 0.0 | 3.0 | 0.00 | 0.66 | 0.01 | 69 | 1007.2 |
| 20260506151028 | 61 | 270 | 3.0 | 6.0 | 0.00 | 0.66 | 0.01 | 69 | 1007.1 |
| 20260506150528 | 61 | 247 | 1.0 | 4.0 | 0.00 | 0.66 | 0.01 | 69 | 1007.1 |
| 20260506150311 | 61 | 265 | 3.0 | 7.0 | 0.00 | 0.66 | 0.01 | 70 | 1007.1 |
| 20260506150028 | 61 | 265 | 3.0 | 7.0 | 0.00 | 0.66 | 0.01 | 70 | 1007.1 |
| 20260506145530 | 61 | 254 | 3.0 | 7.0 | 0.00 | 0.66 | 0.01 | 70 | 1007.0 |
| 20260506145027 | 61 | 277 | 2.0 | 8.0 | 0.00 | 0.66 | 0.01 | 70 | 1006.9 |
| 20260506144811 | 61 | 265 | 3.0 | 6.0 | 0.00 | 0.66 | 0.01 | 69 | 1006.9 |
| 20260506144528 | 61 | 265 | 3.0 | 6.0 | 0.00 | 0.66 | 0.01 | 69 | 1006.9 |
| 20260506144027 | 61 | 254 | 2.0 | 5.0 | 0.00 | 0.66 | 0.01 | 69 | 1007.0 |
| 20260506143527 | 61 | 212 | 2.0 | 6.0 | 0.00 | 0.66 | 0.01 | 70 | 1007.0 |
| 20260506143311 | 61 | 204 | 3.0 | 6.0 | 0.00 | 0.66 | 0.01 | 69 | 1007.0 |
| 20260506143028 | 61 | 204 | 2.0 | 6.0 | 0.00 | 0.66 | 0.01 | 69 | 1007.0 |
| 20260506142527 | 61 | 229 | 3.0 | 5.0 | 0.00 | 0.66 | 0.01 | 70 | 1007.1 |
| 20260506142026 | 61 | 243 | 4.0 | 8.0 | 0.00 | 0.66 | 0.01 | 68 | 1007.0 |
| 20260506141811 | 61 | 213 | 5.0 | 9.0 | 0.00 | 0.66 | 0.01 | 69 | 1007.1 |
| 20260506141528 | 61 | 213 | 6.0 | 9.0 | 0.00 | 0.66 | 0.01 | 69 | 1007.1 |
| 20260506141028 | 61 | 231 | 5.0 | 8.0 | 0.00 | 0.66 | 0.01 | 68 | 1007.2 |
| 20260506140528 | 61 | 237 | 4.0 | 10.0 | 0.00 | 0.66 | 0.01 | 68 | 1007.3 |
| 20260506140311 | 62 | 195 | 4.0 | 9.0 | 0.00 | 0.66 | 0.01 | 68 | 1007.2 |
| 20260506140029 | 62 | 195 | 3.0 | 9.0 | 0.00 | 0.66 | 0.01 | 68 | 1007.2 |
| 20260506135528 | 62 | 205 | 5.0 | 7.0 | 0.00 | 0.67 | 0.01 | 67 | 1007.2 |
| 20260506135028 | 62 | 224 | 5.0 | 9.0 | 0.00 | 0.67 | 0.01 | 69 | 1007.2 |
| 20260506134811 | 62 | 271 | 4.0 | 10.0 | 0.00 | 0.67 | 0.01 | 69 | 1007.2 |
| 20260506134528 | 62 | 271 | 6.0 | 10.0 | 0.00 | 0.67 | 0.01 | 69 | 1007.2 |
| 20260506134027 | 62 | 231 | 5.0 | 9.0 | 0.00 | 0.67 | 0.01 | 68 | 1007.3 |
| 20260506133528 | 61 | 216 | 3.0 | 8.0 | 0.00 | 0.67 | 0.01 | 69 | 1007.2 |
| 20260506133312 | 61 | 202 | 4.0 | 8.0 | 0.00 | 0.67 | 0.01 | 67 | 1007.3 |
| 20260506133027 | 61 | 202 | 4.0 | 8.0 | 0.00 | 0.67 | 0.01 | 67 | 1007.3 |
| 20260506132527 | 62 | 148 | 5.0 | 8.0 | 0.00 | 0.67 | 0.01 | 67 | 1007.3 |
| 20260506132027 | 62 | 181 | 3.0 | 10.0 | 0.00 | 0.67 | 0.01 | 68 | 1007.3 |
| 20260506131811 | 62 | 209 | 5.0 | 8.0 | 0.00 | 0.67 | 0.01 | 69 | 1007.4 |
| 20260506131528 | 62 | 209 | 5.0 | 8.0 | 0.00 | 0.67 | 0.01 | 69 | 1007.4 |
| 20260506131027 | 62 | 214 | 5.0 | 10.0 | 0.00 | 0.67 | 0.01 | 70 | 1007.5 |
| 20260506130526 | 61 | 218 | 2.0 | 9.0 | 0.00 | 0.67 | 0.01 | 69 | 1007.4 |
| 20260506130312 | 61 | 218 | 6.0 | 12.0 | 0.00 | 0.67 | 0.01 | 70 | 1007.4 |
| 20260506130026 | 61 | 218 | 8.0 | 12.0 | 0.00 | 0.67 | 0.01 | 70 | 1007.4 |
| 20260506125528 | 60 | 218 | 6.0 | 11.0 | 0.00 | 0.68 | 0.01 | 69 | 1007.3 |
| 20260506125028 | 60 | 232 | 5.0 | 10.0 | 0.00 | 0.68 | 0.01 | 70 | 1007.3 |
| 20260506124811 | 60 | 257 | 6.0 | 11.0 | 0.00 | 0.68 | 0.01 | 69 | 1007.4 |
| 20260506124528 | 60 | 257 | 4.0 | 11.0 | 0.00 | 0.68 | 0.01 | 69 | 1007.4 |
| 20260506124028 | 60 | 178 | 6.0 | 8.0 | 0.00 | 0.68 | 0.01 | 70 | 1007.4 |
| 20260506123528 | 61 | 235 | 6.0 | 10.0 | 0.00 | 0.68 | 0.01 | 70 | 1007.5 |
| 20260506123311 | 61 | 208 | 4.0 | 10.0 | 0.00 | 0.68 | 0.01 | 70 | 1007.4 |
| 20260506123029 | 61 | 208 | 6.0 | 10.0 | 0.00 | 0.68 | 0.01 | 70 | 1007.4 |
| 20260506122027 | 60 | 225 | 4.0 | 10.0 | 0.00 | 0.68 | 0.01 | 72 | 1007.5 |
| 20260506121814 | 60 | 232 | 5.0 | 9.0 | 0.00 | 0.68 | 0.01 | 72 | 1007.6 |
| 20260506121527 | 60 | 232 | 5.0 | 9.0 | 0.00 | 0.68 | 0.01 | 72 | 1007.6 |
| 20260506121026 | 60 | 228 | 7.0 | 12.0 | 0.00 | 0.68 | 0.01 | 69 | 1007.7 |
| 20260506120528 | 60 | 183 | 6.0 | 11.0 | 0.00 | 0.68 | 0.01 | 74 | 1007.7 |
| 20260506120311 | 60 | 218 | 5.0 | 12.0 | 0.00 | 0.68 | 0.01 | 72 | 1007.7 |
| 20260506120028 | 60 | 218 | 4.0 | 12.0 | 0.00 | 0.68 | 0.01 | 72 | 1007.7 |
| 20260506115528 | 60 | 213 | 6.0 | 12.0 | 0.00 | 0.68 | 0.01 | 71 | 1007.7 |
| 20260506115028 | 60 | 242 | 7.0 | 12.0 | 0.00 | 0.68 | 0.01 | 71 | 1007.7 |
| 20260506114815 | 60 | 157 | 6.0 | 12.0 | 0.00 | 0.68 | 0.01 | 73 | 1007.7 |
| 20260506114528 | 60 | 157 | 4.0 | 12.0 | 0.00 | 0.68 | 0.01 | 73 | 1007.7 |
| 20260506114027 | 60 | 171 | 6.0 | 10.0 | 0.00 | 0.68 | 0.01 | 73 | 1007.7 |
| 20260506113527 | 60 | 200 | 7.0 | 13.0 | 0.00 | 0.68 | 0.01 | 73 | 1007.7 |
| 20260506113311 | 60 | 212 | 7.0 | 14.0 | 0.00 | 0.68 | 0.01 | 73 | 1007.7 |
| 20260506113027 | 60 | 212 | 3.0 | 14.0 | 0.00 | 0.68 | 0.01 | 73 | 1007.7 |
| 20260506112527 | 60 | 215 | 5.0 | 12.0 | 0.00 | 0.68 | 0.01 | 73 | 1007.7 |
| 20260506112027 | 60 | 204 | 5.0 | 9.0 | 0.00 | 0.68 | 0.01 | 73 | 1007.6 |
| 20260506111811 | 60 | 211 | 5.0 | 12.0 | 0.00 | 0.68 | 0.01 | 71 | 1007.8 |
| 20260506111526 | 60 | 211 | 6.0 | 12.0 | 0.00 | 0.68 | 0.01 | 71 | 1007.8 |